| time (UTC) | temp F | wind direction | speed knots | gust knots | rain 1hr in | rain 24hr in | rain mn in | humidity % | barometer mb |
| 20260504015705 | 66 | 331 | 7.0 | 13.0 | 0.00 | 0.10 | 0.00 | 62 | 1009.8 |
| 20260504015205 | 66 | 315 | 5.2 | 14.8 | 0.00 | 0.10 | 0.00 | 63 | 1009.9 |
| 20260504013205 | 65 | 333 | 6.1 | 17.4 | 0.00 | 0.12 | 0.00 | 64 | 1010.1 |
| 20260504011205 | 65 | 320 | 5.2 | 17.4 | 0.00 | 0.15 | 0.00 | 64 | 1010.1 |
| 20260504004205 | 65 | 340 | 5.2 | 12.2 | 0.00 | 0.19 | 0.00 | 66 | 1010.3 |
| 20260504003705 | 65 | 314 | 6.1 | 14.8 | 0.00 | 0.20 | 0.00 | 66 | 1010.2 |
| 20260504000704 | 64 | 318 | 5.2 | 11.3 | 0.00 | 0.28 | 0.00 | 67 | 1010.3 |
| 20260503235205 | 63 | 306 | 6.1 | 13.9 | 0.00 | 0.30 | 0.00 | 68 | 1010.4 |
| 20260503234704 | 63 | 321 | 5.2 | 10.4 | 0.00 | 0.31 | 0.00 | 68 | 1010.4 |
| 20260503234205 | 62 | 335 | 5.2 | 12.2 | 0.00 | 0.31 | 0.00 | 69 | 1010.5 |
| 20260503231704 | 61 | 332 | 4.3 | 10.4 | 0.00 | 0.31 | 0.00 | 70 | 1010.6 |
| 20260503231204 | 61 | 324 | 5.2 | 10.4 | 0.00 | 0.31 | 0.00 | 70 | 1010.6 |
| 20260503230204 | 60 | 307 | 2.6 | 8.7 | 0.00 | 0.31 | 0.00 | 72 | 1010.6 |
| 20260503225705 | 60 | 329 | 2.6 | 13.0 | 0.00 | 0.31 | 0.31 | 72 | 1010.5 |
| 20260503225205 | 60 | 326 | 2.6 | 8.7 | 0.00 | 0.31 | 0.31 | 73 | 1010.6 |
| 20260503223706 | 59 | 336 | 2.6 | 8.7 | 0.00 | 0.31 | 0.31 | 73 | 1010.6 |
| 20260503222705 | 59 | 329 | 2.6 | 7.8 | 0.00 | 0.31 | 0.31 | 75 | 1010.7 |
| 20260503221205 | 57 | 319 | 2.6 | 6.1 | 0.00 | 0.31 | 0.31 | 80 | 1010.8 |
| 20260503220204 | 56 | 328 | 2.6 | 6.1 | 0.00 | 0.31 | 0.31 | 81 | 1010.8 |
| 20260503215704 | 56 | 320 | 2.6 | 5.2 | 0.00 | 0.31 | 0.31 | 82 | 1010.7 |
| 20260503215204 | 55 | 5 | 2.6 | 5.2 | 0.00 | 0.31 | 0.31 | 82 | 1010.6 |
| 20260503214204 | 55 | 339 | 1.7 | 7.0 | 0.00 | 0.31 | 0.31 | 82 | 1010.8 |
| 20260503213705 | 55 | 328 | 1.7 | 4.3 | 0.00 | 0.31 | 0.31 | 83 | 1010.8 |
| 20260503213205 | 55 | 344 | 1.7 | 2.6 | 0.00 | 0.31 | 0.31 | 83 | 1010.7 |
| 20260503211704 | 55 | 355 | 1.7 | 4.3 | 0.00 | 0.31 | 0.31 | 84 | 1010.5 |
| 20260503210205 | 55 | 342 | 1.7 | 7.0 | 0.00 | 0.31 | 0.31 | 84 | 1010.6 |
| 20260503205204 | 55 | 336 | 0.9 | 5.2 | 0.00 | 0.31 | 0.31 | 85 | 1010.5 |
| 20260503204705 | 54 | 12 | 0.9 | 4.3 | 0.00 | 0.31 | 0.31 | 85 | 1010.5 |
| 20260503204204 | 54 | 21 | 1.7 | 4.3 | 0.00 | 0.31 | 0.31 | 85 | 1010.5 |
| 20260503203205 | 54 | 328 | 0.9 | 2.6 | 0.00 | 0.31 | 0.31 | 84 | 1010.3 |
| 20260503202705 | 54 | 347 | 0.9 | 2.6 | 0.00 | 0.31 | 0.31 | 84 | 1010.3 |
| 20260503202204 | 54 | 31 | 0.9 | 2.6 | 0.00 | 0.31 | 0.31 | 84 | 1010.3 |
| 20260503200204 | 55 | 46 | 0.0 | 1.7 | 0.00 | 0.31 | 0.31 | 84 | 1010.3 |
| 20260503195705 | 55 | 29 | 0.9 | 2.6 | 0.00 | 0.31 | 0.31 | 84 | 1010.4 |
| 20260503195205 | 55 | 22 | 0.0 | 2.6 | 0.00 | 0.31 | 0.31 | 84 | 1010.4 |
| 20260503194704 | 55 | 8 | 1.7 | 4.3 | 0.00 | 0.31 | 0.31 | 84 | 1010.4 |
| 20260503194205 | 55 | 341 | 1.7 | 5.2 | 0.00 | 0.31 | 0.31 | 85 | 1010.4 |
| 20260503193705 | 55 | 347 | 1.7 | 2.6 | 0.00 | 0.31 | 0.31 | 85 | 1010.4 |
| 20260503193204 | 55 | 341 | 2.6 | 7.8 | 0.00 | 0.31 | 0.31 | 85 | 1010.3 |
| 20260503192204 | 55 | 11 | 2.6 | 6.1 | 0.00 | 0.31 | 0.31 | 85 | 1010.4 |
| 20260503191705 | 55 | 351 | 1.7 | 5.2 | 0.00 | 0.31 | 0.31 | 85 | 1010.5 |
| 20260503191205 | 55 | 11 | 1.7 | 4.3 | 0.00 | 0.31 | 0.31 | 85 | 1010.5 |
| 20260503190704 | 55 | 22 | 1.7 | 5.2 | 0.00 | 0.31 | 0.31 | 85 | 1010.6 |
| 20260503190205 | 55 | 346 | 1.7 | 5.2 | 0.00 | 0.31 | 0.31 | 86 | 1010.7 |
| 20260503183705 | 55 | 325 | 1.7 | 4.3 | 0.00 | 0.32 | 0.31 | 86 | 1010.8 |
| 20260503183206 | 55 | 338 | 1.7 | 6.1 | 0.00 | 0.32 | 0.31 | 86 | 1010.8 |
| 20260503182205 | 55 | 2 | 1.7 | 4.3 | 0.00 | 0.32 | 0.31 | 86 | 1010.9 |
| 20260503174704 | 55 | 2 | 1.7 | 5.2 | 0.00 | 0.32 | 0.31 | 86 | 1010.9 |
| 20260503174205 | 55 | 7 | 2.6 | 4.3 | 0.00 | 0.32 | 0.31 | 86 | 1011.0 |
| 20260503173704 | 55 | 0 | 1.7 | 7.0 | 0.00 | 0.32 | 0.31 | 86 | 1011.1 |
| 20260503172705 | 55 | 335 | 0.9 | 5.2 | 0.00 | 0.32 | 0.31 | 85 | 1011.1 |
| 20260503160204 | 56 | 335 | 0.9 | 4.3 | 0.00 | 0.32 | 0.31 | 84 | 1011.6 |
| 20260503150704 | 57 | 358 | 1.7 | 6.1 | 0.00 | 0.32 | 0.31 | 84 | 1011.4 |
| 20260503150205 | 57 | 36 | 0.9 | 2.6 | 0.00 | 0.32 | 0.31 | 84 | 1011.4 |
| 20260503130706 | 59 | 332 | 1.7 | 7.8 | 0.00 | 0.32 | 0.31 | 81 | 1011.5 |
| 20260503130205 | 60 | 337 | 3.5 | 8.7 | 0.00 | 0.32 | 0.31 | 81 | 1011.6 |
| 20260503100206 | 59 | 358 | 1.7 | 2.6 | 0.00 | 0.32 | 0.31 | 78 | 1012.1 |
| 20260503090205 | 61 | 339 | 2.6 | 7.0 | 0.00 | 0.32 | 0.31 | 79 | 1011.2 |
| 20260503081205 | 61 | 319 | 1.7 | 5.2 | 0.00 | 0.32 | 0.31 | 81 | 1010.4 |
| 20260503080205 | 61 | 328 | 1.7 | 2.6 | 0.00 | 0.32 | 0.31 | 80 | 1010.3 |
| 20260503072705 | 61 | 284 | 2.6 | 7.0 | 0.00 | 0.32 | 0.31 | 78 | 1010.1 |
| 20260503070705 | 61 | 295 | 2.6 | 7.8 | 0.00 | 0.32 | 0.31 | 82 | 1009.9 |
| 20260503070205 | 61 | 300 | 4.3 | 8.7 | 0.00 | 0.32 | 0.31 | 84 | 1009.8 |
| 20260503054205 | 63 | 25 | 0.9 | 2.6 | 0.02 | 0.32 | 0.31 | 89 | 1009.8 |
| 20260503053706 | 63 | 336 | 1.7 | 6.1 | 0.02 | 0.32 | 0.31 | 89 | 1009.8 |
| 20260503052706 | 63 | 271 | 0.0 | 0.9 | 0.02 | 0.31 | 0.30 | 89 | 1009.7 |
| 20260503051705 | 63 | 271 | 0.0 | 2.6 | 0.06 | 0.31 | 0.30 | 88 | 1009.5 |
| 20260503051205 | 63 | 259 | 0.0 | 2.6 | 0.09 | 0.31 | 0.30 | 88 | 1009.6 |
| 20260503050705 | 63 | 259 | 0.0 | 1.7 | 0.09 | 0.31 | 0.30 | 88 | 1009.5 |
| 20260503050205 | 63 | 259 | 0.0 | 1.7 | 0.09 | 0.31 | 0.29 | 88 | 1009.6 |
| 20260503045705 | 63 | 259 | 0.9 | 1.7 | 0.08 | 0.30 | 0.28 | 88 | 1009.5 |
| 20260503045205 | 63 | 260 | 1.7 | 4.3 | 0.08 | 0.30 | 0.28 | 87 | 1009.5 |
| 20260503044705 | 63 | 268 | 1.7 | 2.6 | 0.08 | 0.30 | 0.28 | 87 | 1009.7 |
| 20260503044205 | 63 | 246 | 2.6 | 4.3 | 0.08 | 0.30 | 0.28 | 87 | 1009.6 |
| 20260503043705 | 63 | 281 | 2.6 | 5.2 | 0.08 | 0.30 | 0.28 | 86 | 1009.5 |
| 20260503043206 | 63 | 283 | 3.5 | 8.7 | 0.07 | 0.29 | 0.28 | 85 | 1009.6 |
| 20260503042705 | 64 | 270 | 4.3 | 8.7 | 0.07 | 0.29 | 0.28 | 84 | 1009.5 |
| 20260503041705 | 65 | 278 | 6.1 | 10.4 | 0.03 | 0.25 | 0.24 | 82 | 1009.4 |
| 20260503041206 | 66 | 251 | 3.5 | 7.8 | 0.01 | 0.23 | 0.21 | 82 | 1009.3 |
| 20260503040205 | 67 | 272 | 5.2 | 10.4 | 0.00 | 0.22 | 0.20 | 81 | 1009.2 |
| 20260503035705 | 67 | 276 | 1.7 | 6.1 | 0.00 | 0.22 | 0.20 | 81 | 1009.2 |
| 20260503034704 | 67 | 317 | 3.5 | 7.0 | 0.00 | 0.22 | 0.20 | 81 | 1009.1 |
| 20260503033706 | 68 | 306 | 4.3 | 10.4 | 0.00 | 0.22 | 0.20 | 80 | 1009.1 |
| 20260503033205 | 68 | 327 | 5.2 | 10.4 | 0.00 | 0.22 | 0.20 | 80 | 1009.1 |
| 20260503030206 | 68 | 320 | 6.1 | 11.3 | 0.00 | 0.22 | 0.20 | 81 | 1009.5 |
| 20260503024205 | 69 | 323 | 4.3 | 7.8 | 0.00 | 0.22 | 0.20 | 82 | 1009.6 |
| 20260503023705 | 70 | 299 | 1.7 | 12.2 | 0.00 | 0.22 | 0.20 | 85 | 1009.6 |
| 20260503023205 | 69 | 316 | 4.3 | 12.2 | 0.02 | 0.22 | 0.20 | 85 | 1009.4 |
| 20260503022706 | 68 | 310 | 2.6 | 7.8 | 0.02 | 0.22 | 0.20 | 89 | 1009.5 |
| 20260503022205 | 66 | 315 | 3.5 | 10.4 | 0.03 | 0.22 | 0.20 | 90 | 1009.6 |
| 20260503021204 | 66 | 315 | 3.5 | 7.8 | 0.05 | 0.22 | 0.20 | 91 | 1009.8 |
| 20260503020704 | 65 | 323 | 2.6 | 11.3 | 0.05 | 0.22 | 0.20 | 91 | 1009.8 |
| 20260503020204 | 64 | 327 | 4.3 | 8.7 | 0.05 | 0.22 | 0.20 | 90 | 1009.9 |